Regional Weather Roundup
Issued by NWS

Home | Current Version | Previous Version | Text Only | Print | Product List | Glossary On
Versions: 1 2 3 4 5 6 7 8 9 10 11 12 13 14 15 16 17 18 19 20 21 22 23 24 25 26 27 28 29 30 31 32 33 34 35 36 37 38 39 40 41 42 43 44 45 46 47 48 49 50
000
ASUS44 KLIX 030111
RWRLA
LOUISIANA WEATHER ROUNDUP
NATIONAL WEATHER SERVICE NEW ORLEANS LA
800 PM CDT WED SEP 02 2015

NOTE: "FAIR" INDICATES FEW OR NO CLOUDS BELOW 12,000 FEET WITH NO
      SIGNIFICANT WEATHER AND/OR OBSTRUCTIONS TO VISIBILITY.
      SKY/WX - SKY CONDITION AND SIGNIFICANT WEATHER.
      TMP - AIR TEMPERATURE.    DP   - DEWPOINT TEMPERATURE.
      RH  - RELATIVE HUMIDITY.  PRES - PRESSURE.
      HX  - HEAT INDEX.         WCI  - WIND CHILL INDEX.

*  THESE STATIONS ARE NOT NWS OR FAA STATIONS AND ARE NOT UNDER
   NWS QUALITY CONTROL.

LAZ040-048-061>063-065-066-069-030200-
SOUTHEAST LOUISIANA

CITY           SKY/WX    TMP DP  RH WIND       PRES   REMARKS
N.O. AUDUBON     N/A     79  76  90 MISG        N/A
N.O. INTL ARPT CLOUDY    79  71  76 SE5       29.98F
N.O. LAKEFRONT CLOUDY    80  71  74 CALM      30.00R
N.O. DOWNTOWN* FAIR      81  72  74 CALM      30.00R
RESERVE*       FAIR      78  74  85 CALM      29.98S
SLIDELL        CLOUDY    81  74  79 CALM      29.98F
BATON ROUGE    MOCLDY    78  72  81 NE5       29.98F
BOOTHVILLE     MOCLDY    79  75  87 CALM      29.99S
BELLE CHASSE   CLOUDY    77  74  90 CALM      29.99R
BOGALUSA*      NOT AVBL
GALLIANO*      CLOUDY    75  74  96 CALM      29.98S
NEW ROADS*     FAIR      78  73  86 CALM      29.98F
GONZALES*      FAIR      77  77 100 CALM      29.97S
HAMMOND*       CLOUDY    79  70  73 CALM      30.00F
HOUMA*         CLOUDY    75  75  99 CALM      29.98F
PORT FOURCHON* CLEAR     81  75  83 CALM      29.98F

$$

LAZ041-044-053-054-030200-
SOUTHWEST LOUISIANA

CITY           SKY/WX    TMP DP  RH WIND       PRES   REMARKS
LAKE CHARLES   PTCLDY    78  74  87 E5        29.95F
LAFAYETTE      MOCLDY    78  73  84 CALM      29.97F
PATTERSON      CLOUDY    77  73  88 CALM      29.98F
SALT POINT       N/A     78  76  93 CALM      29.95F
NEW IBERIA     CLOUDY    79  75  87 CALM      29.98F
CHENAULT AIRPK CLEAR     77  73  88 E6        29.96F

$$

LAZ027-028-030200-
CENTRAL LOUISIANA

CITY           SKY/WX    TMP DP  RH WIND       PRES   REMARKS
FORT POLK      NOT AVBL
ALEXANDRIA INT CLEAR     78  68  71 SE3       29.96S
ALEXANDRIA       N/A     80  70  71 CALM      29.98S

$$

LAZ001-002-030200-
NORTHWEST LOUISIANA

CITY           SKY/WX    TMP DP  RH WIND       PRES   REMARKS
SHREVEPORT     PTCLDY    85  59  41 CALM      29.95R
BARKSDALE AFB  NOT AVBL
DTN SHREVEPORT CLEAR     82  68  62 E5        29.96R

$$

LAZ014-016-030200-
NORTHEAST LOUISIANA

CITY           SKY/WX    TMP DP  RH WIND       PRES   REMARKS
MONROE         PTCLDY    83  72  69 E6        29.97F
TALLULAH       PTCLDY    79  74  84 CALM      29.97S

$$



USA.gov is the U.S. government's official web portal to all federal, state and local government web resources and services.